Location: Bazugues
(43.4465°N, 0.3432°E)
Time: 15:25:06
(UTC+00:00)

Resurs 01 Rocket - Pass Details

Date: 12 January 2026
Orbit: 628 x 635 km, 97.7° (Epoch: 18 February)

Event Time Altitude Azimuth Distance (km) Brightness Sun altitude
Rises 18:45:59 0° 159° (SSE) 2,902 4.9 -21.5°
Enters shadow 18:47:22 - 158° (SSE) 2,328 4.4 -21.8°
Exits shadow 18:53:23 52° 16° (NNE) 780 1.8 -22.8°
Drops below altitude 10° 18:56:51 10° 352° (N) 2,014 4.2 -23.5°
Sets 18:59:03 0° 350° (N) 2,926 5.1 -23.9°
